Regional Weather Roundup
Issued by NWS

Home | Current Version | Previous Version | Graphics & Text | Print | Product List | Glossary On
Versions: 1 2 3 4 5 6 7 8 9 10 11 12 13 14 15 16 17 18 19 20 21 22 23 24 25 26 27 28 29 30 31 32 33 34 35 36 37 38 39 40 41 42 43 44 45 46 47 48 49 50
000
ASUS45 KBOU 252207
RWRCO

WEATHER ROUNDUP FOR COLORADO
NATIONAL WEATHER SERVICE DENVER/BOULDER CO
300 PM MST TUE NOV 25 2014

NOTE: "FAIR" INDICATES FEW OR NO CLOUDS BELOW 12000 FEET WITH NO
SIGNIFICANT WEATHER AND/OR OBSTRUCTIONS TO VISIBILITY.

COZ001>005-013-030-031-252300-
...NORTHWEST COLORADO...

CITY           SKY/WX    TMP DP  RH WIND       PRES   REMARKS
CRAIG          CLOUDY    27  20  75 E13       30.16S WCI  16
HAYDEN         CLOUDY    25  18  74 SE8       30.16R WCI  16
MEEKER         CLOUDY    32  19  58 NE8       30.21R WCI  25
MOUNT WERNER   NOT AVBL
STEAMBOAT SPGS CLOUDY    22  20  93 CALM      30.16S
WALDEN         CLOUDY    28  19  69 W22G31    30.02F WCI  15
$$

COZ006>008-011-252300-
...WEST CENTRAL VALLEYS...

CITY           SKY/WX    TMP DP  RH WIND       PRES   REMARKS
GRAND JUNCTION SUNNY     39  14  36 CALM      30.29F
MONTROSE       CLOUDY    34  13  41 CALM      30.30F
EAGLE          CLOUDY    30  19  64 SW20      30.25S WCI  18
RIFLE          CLOUDY    27  19  72 NE3       30.30F
DELTA          CLOUDY    39  21  47 E5        30.30F
NUCLA          CLOUDY    43   5  21 E7        30.35F
$$

COZ017>023-064>068-252300-
...SOUTHWEST COLORADO...

CITY           SKY/WX    TMP DP  RH WIND       PRES   REMARKS
DURANGO        SUNNY     46  11  24 W10       30.23F
CORTEZ         SUNNY     43   6  21 NW9       30.33S
PAGOSA SPRINGS SUNNY     36   5  27 S6        30.26S
TELLURIDE      CLOUDY    26  18  70 E7        30.35S WCI  19
WOLF CREEK PAS SUNNY     27  12  54 MISG      30.24S
$$

COZ009-010-012-014-032>034-037-058>063-252300-
...CENTRAL COLORADO...

CITY           SKY/WX    TMP DP  RH WIND       PRES   REMARKS
ASPEN          LGT SNOW  22  18  85 NW3       30.21F FOG
BUENA VISTA    PTSUNNY   33  14  46 W24G35    30.07F WCI  20
COPPER MTN     CLOUDY    18  10  73 W25G40    30.08R WCI  -1
BERTHOUD PASS  NOT AVBL
COTTONWOOD PAS CLOUDY    28  14  54 NW32G51   30.02F WCI  12
GUNNISON       SUNNY     23  16  74 NE3       30.30S
KREMMLING      CLOUDY    30  21  69 W14G21    30.13F WCI  20
LEADVILLE      LGT SNOW  19  13  77 N16G24    30.13F WCI   4
MONARCH PASS   CLOUDY    10   9  92 W44       30.25R WCI -15
SALIDA         PTSUNNY   38  14  36 W39G52    30.12F
SUNLIGHT       CLOUDY   N/A N/A N/A SW3       30.18R
WILKERSON PASS MOSUNNY   23  12  63 MISG      29.93F
$$

COZ069>075-252300-
...SAN LUIS VALLEY/SANGRE DE CRISTO MOUNTAINS...

CITY           SKY/WX    TMP DP  RH WIND       PRES   REMARKS
ALAMOSA        SUNNY     34   2  25 SE6       30.19S WCI  29
LA VETA PASS   MOSUNNY   27   9  46 S16G26    30.06S WCI  14
SAGUACHE       NOT AVBL
$$

COZ035-036-038>040-252300-
...NORTHERN COLORADO FRONT RANGE...

CITY           SKY/WX    TMP DP  RH WIND       PRES   REMARKS
DENVER INTL AP PTSUNNY   48  16  27 W15G24    29.86R
DMNS CITY PARK   N/A     47  16  29 NW25G37   29.86S
AURORA         PTSUNNY   44  16  32 W25G32    29.87S
FRONT RANGE AP PTSUNNY   48  19  32 W24       29.88
ERIE MUNI ARPT PTSUNNY   51  13  21 NW7       29.85S
BOULDER MUN AP PTSUNNY   50  18  27 NW29G40   29.84F
CENTENNIAL     CLOUDY    45  17  32 N18       29.89R
BROOMFIELD     PTSUNNY   48  16  27 W26G40    29.87R
FORT COLLINS   MOSUNNY   48  23  37 E9G16     29.84S
LONGMONT       MOSUNNY   54  16  22 E10       29.85S
$$

COZ041-046-047-076>085-087-088-252300-
...PIKES PEAK/PALMER DIVIDE AND SOUTHERN FOOTHILLS...

CITY           SKY/WX    TMP DP  RH WIND       PRES   REMARKS
COLO. SPRINGS  CLOUDY    48  14  25 NW21G29   29.89F
A. F. ACADEMY  SUNNY     45  13  27 W20G33    29.89F
ELLICOTT       NOT AVBL
FALCON         NOT AVBL
FORT CARSON    CLOUDY    45  15  30 S14       29.87F
LIMON          PTSUNNY   48  15  26 NW20      29.87F
MONUMENT HILL  CLOUDY    36  18  48 NW9       29.91R
TRINIDAD       MOSUNNY   49  19  30 NW17G25   29.96S
$$

COZ042>045-048>051-090-091-252300-
...NORTHEAST COLORADO...

CITY           SKY/WX    TMP DP  RH WIND       PRES   REMARKS
GREELEY ARPT   MOSUNNY   46  19  34 SW8       29.86R
AKRON          CLOUDY    46  13  26 NW10      29.85S
BURLINGTON     PTSUNNY   48   9  20 SW12      29.86F
WRAY           CLOUDY    52  14  22 W16G26    29.84F
STERLING       CLOUDY    54  27  35 N22G31    29.82S
HOLYOKE        CLOUDY    50  18  27 NW9       29.83R
FORT MORGAN    CLOUDY    49  13  23 W7        29.86R
$$

COZ086-089-092>099-252300-
...SOUTHEAST COLORADO...

CITY           SKY/WX    TMP DP  RH WIND       PRES   REMARKS
PUEBLO         PTSUNNY   55  16  21 W29G35    29.86F
LA JUNTA       MOSUNNY   54  16  22 W9        29.89F
LAMAR          PTSUNNY   52  13  21 W13       29.88F
SPRINGFIELD      N/A     50  11  20 W18G24    29.92F
$$



USA.gov is the U.S. government's official web portal to all federal, state and local government web resources and services.